Location: Bennemühlen
(52.5740°N, 9.7135°E)
Time: 16:21:31
(UTC+00:00)

SR - Pass Details

Date: 23 February 2026
Orbit: 572 x 848 km, 66.7° (Epoch: 8 March)

Event Time Altitude Azimuth Distance (km) Brightness Sun altitude
Exits shadow 03:28:53 55° 28° (NNE) 741 ? -26.6°
Drops below altitude 10° 03:32:33 10° 38° (NE) 2,044 ? -26.1°
Sets 03:34:56 0° 40° (NE) 3,002 ? -25.7°
